"startDT [UTC]","vpos","CH4 [ppm]","stdev(CH4) [ppm]","CO2 [ppm]","stdev(CO2) [ppm]","H2O_reported [%]","stdev(H2O_reported)","CavityPressure [torr]","CavityTemp [C]","OutletValve","CH4_dry [ppm]","CO2_dry [ppm]","DasTemp [C]","EtalonTemp [C]","WarmBoxTemp [C]","MPVPosition","T_ECpre [C]","T_EC1 [C]","T_EC2 [C]","p_inlet [hPa]","p_in [hPa]","p_out [hPa]","T_inlet [C]","RH_inlet [%]","dwpt_inlet [C]","T_vent [C]","RH_vent [%]","dwpt_vent [C]","flow_vent [l min-1]","flow_inlet [l min-1]","dwpt_sample [C]","T_room [C]"
2015-11-30 00:00:00,0.0,1.92476,0.00032,404.830,0.118,0.0828,0.0023,139.998,45.000,31673.67184,1.92631,405.231,34.442,45.069,45.000,0.00,0.09,-272.75,-272.80,-5,523,-944,20.5,2.8,-26.9,20.6,3.0,-26.2,5.73,2.08,-14.7,26.8
2015-11-30 00:01:00,0.0,1.92479,0.00043,405.006,0.062,0.0841,0.0026,139.999,45.000,31674.68647,1.92642,405.418,34.457,45.069,45.000,0.00,0.08,-272.76,-272.81,-6,523,-944,20.5,2.8,-26.9,20.6,2.9,-26.6,5.73,2.09,-14.7,26.8
2015-11-30 00:02:00,0.0,1.92471,0.00032,404.980,0.063,0.0900,0.0019,139.996,45.000,31674.39097,1.92640,405.416,34.477,45.069,45.000,0.00,0.08,-272.75,-272.82,-6,523,-944,20.5,3.0,-26.2,20.6,3.0,-26.1,5.73,1.84,-14.7,26.8
2015-11-30 00:03:00,0.0,1.92462,0.00052,405.053,0.027,0.0929,0.0017,139.998,45.000,31675.73846,1.92639,405.504,34.499,45.069,44.999,0.00,0.09,-272.74,-272.81,-7,523,-944,20.5,3.1,-25.7,20.6,3.1,-25.6,5.73,1.85,-14.7,26.8
2015-11-30 00:04:00,0.0,1.92449,0.00036,404.997,0.035,0.0948,0.0018,140.001,45.000,31677.99530,1.92624,405.458,34.494,45.069,45.000,0.00,0.08,-272.76,-272.81,-6,523,-944,20.5,3.2,-25.5,20.6,3.2,-25.3,5.73,2.10,-14.7,26.8
2015-11-30 00:05:00,0.0,1.92473,0.00040,405.016,0.048,0.0960,0.0016,140.000,45.000,31676.54566,1.92658,405.487,34.484,45.069,45.000,0.00,0.08,-272.75,-272.81,-5,523,-944,20.5,3.2,-25.4,20.6,3.3,-25.2,5.73,2.07,-14.7,26.8
2015-11-30 00:06:00,0.0,1.92458,0.00039,404.874,0.038,0.0970,0.0017,140.000,45.000,31676.12549,1.92640,405.348,34.466,45.069,45.000,0.00,0.09,-272.75,-272.81,-6,523,-944,20.5,3.2,-25.3,20.6,3.3,-25.0,5.73,1.84,-14.7,26.8
2015-11-30 00:07:00,0.0,1.92443,0.00039,404.824,0.033,0.0985,0.0015,139.998,45.000,31675.84026,1.92632,405.303,34.441,45.069,45.000,0.00,0.09,-272.75,-272.80,-6,523,-944,20.5,3.3,-25.2,20.6,3.3,-25.0,5.73,1.86,-14.7,26.8
2015-11-30 00:08:00,0.0,1.92447,0.00026,404.795,0.028,0.0992,0.0019,139.999,45.000,31676.25478,1.92634,405.281,34.438,45.070,45.000,0.00,0.08,-272.76,-272.81,-7,523,-944,20.5,3.3,-25.1,20.6,3.3,-24.9,5.73,2.11,-14.7,26.8
2015-11-30 00:09:00,0.0,1.92473,0.00032,404.774,0.035,0.0995,0.0017,140.000,45.000,31675.73121,1.92661,405.260,34.434,45.070,45.000,0.00,0.08,-272.75,-272.81,-6,524,-944,20.5,3.3,-25.1,20.6,3.4,-24.8,5.73,2.05,-14.7,26.8
2015-11-30 00:10:00,0.0,1.92457,0.00039,404.766,0.033,0.0999,0.0017,139.997,45.000,31673.96311,1.92648,405.253,34.418,45.070,45.000,0.00,0.08,-272.74,-272.80,-5,523,-944,20.5,3.3,-25.0,20.6,3.4,-24.7,5.73,1.83,-14.7,26.8
2015-11-30 00:11:00,0.0,1.92461,0.00039,404.736,0.033,0.0997,0.0017,139.999,45.000,31677.09250,1.92649,405.222,34.384,45.070,45.000,0.00,0.08,-272.75,-272.80,-6,523,-944,20.5,3.3,-25.1,20.6,3.4,-24.8,5.73,1.89,-14.7,26.8
2015-11-30 00:12:00,0.0,1.92476,0.00030,404.726,0.031,0.0991,0.0019,139.997,45.000,31675.01843,1.92664,405.209,34.423,45.070,45.001,0.00,0.08,-272.76,-272.81,-6,523,-944,20.5,3.3,-25.1,20.6,3.4,-24.9,5.73,2.11,-14.7,26.8
2015-11-30 00:13:00,0.0,1.92468,0.00039,404.714,0.028,0.0985,0.0017,139.997,45.000,31674.29257,1.92654,405.194,34.430,45.070,45.000,0.00,0.09,-272.75,-272.80,-7,523,-944,20.5,3.3,-25.2,20.6,3.4,-24.9,5.73,2.05,-14.7,26.8
2015-11-30 00:14:00,0.0,1.92475,0.00046,404.681,0.033,0.0988,0.0018,139.998,45.000,31674.91753,1.92664,405.163,34.428,45.070,45.000,0.00,0.08,-272.75,-272.81,-6,524,-944,20.5,3.3,-25.2,20.6,3.4,-24.9,5.73,1.81,-14.7,26.8
2015-11-30 00:15:00,0.0,1.92480,0.00039,404.702,0.033,0.0981,0.0016,140.000,45.000,31675.96861,1.92664,405.179,34.389,45.069,45.000,0.00,0.09,-272.75,-272.82,-6,523,-944,20.5,3.3,-25.3,20.6,3.3,-25.0,5.73,1.90,-14.7,26.8
2015-11-30 00:16:00,0.0,1.92492,0.00033,404.708,0.026,0.0963,0.0017,139.999,45.000,31676.05916,1.92677,405.178,34.391,45.070,45.000,0.00,0.08,-272.75,-272.81,-6,523,-944,20.5,3.2,-25.3,20.6,3.3,-25.0,5.73,2.12,-14.7,26.8
2015-11-30 00:17:00,0.0,1.92478,0.00040,404.694,0.033,0.0968,0.0020,140.001,45.000,31677.02848,1.92660,405.166,34.426,45.070,45.000,0.00,0.08,-272.74,-272.81,-6,523,-944,20.5,3.2,-25.4,20.6,3.3,-25.0,5.73,2.03,-14.7,26.8
2015-11-30 00:18:00,0.0,1.92496,0.00039,404.670,0.038,0.0956,0.0019,139.998,45.000,31674.87966,1.92678,405.136,34.417,45.069,45.000,0.00,0.08,-272.75,-272.81,-7,523,-944,20.5,3.2,-25.5,20.6,3.3,-25.1,5.73,1.82,-14.7,26.8
2015-11-30 00:19:00,0.0,1.92487,0.00035,404.689,0.032,0.0961,0.0019,139.999,45.000,31675.74369,1.92670,405.158,34.403,45.069,45.000,0.00,0.09,-272.76,-272.81,-7,524,-944,20.5,3.2,-25.5,20.6,3.3,-25.2,5.73,1.90,-14.7,26.8
2015-11-30 00:20:00,0.0,1.92498,0.00032,404.678,0.039,0.0961,0.0016,139.999,45.000,31675.77229,1.92679,405.146,34.423,45.069,45.000,0.00,0.08,-272.76,-272.80,-6,523,-944,20.5,3.2,-25.4,20.6,3.3,-25.1,5.73,2.13,-14.7,26.8
2015-11-30 00:21:00,0.0,1.92509,0.00034,404.673,0.042,0.0947,0.0014,139.998,45.000,31674.33730,1.92688,405.135,34.427,45.069,45.000,0.00,0.08,-272.75,-272.81,-5,523,-944,20.5,3.2,-25.6,20.6,3.3,-25.2,5.73,2.02,-14.7,26.8
2015-11-30 00:22:00,0.0,1.92515,0.00031,404.722,0.040,0.0924,0.0011,139.998,45.000,31672.86833,1.92692,405.171,34.380,45.069,45.000,0.00,0.08,-272.75,-272.81,-6,523,-944,20.5,3.1,-25.8,20.6,3.2,-25.4,5.73,1.80,-14.7,26.8
2015-11-30 00:23:00,0.0,1.92525,0.00044,404.754,0.023,0.0913,0.0012,140.002,45.000,31677.27094,1.92696,405.199,34.369,45.069,45.000,0.00,0.09,-272.75,-272.81,-7,523,-944,20.5,3.1,-26.0,20.6,3.2,-25.5,5.73,1.92,-14.7,26.8
2015-11-30 00:24:00,0.0,1.92537,0.00043,404.787,0.048,0.0900,0.0018,139.999,45.000,31676.81526,1.92706,405.225,34.372,45.069,45.000,0.00,0.08,-272.75,-272.80,-7,524,-944,20.5,3.0,-26.1,20.6,3.1,-25.7,5.73,2.13,-14.7,26.8
2015-11-30 00:25:00,0.0,1.92656,0.00081,404.854,0.065,0.0895,0.0015,140.001,45.000,31677.76399,1.92821,405.288,34.375,45.069,45.000,0.00,0.08,-272.75,-272.81,-6,523,-944,20.5,3.0,-26.3,20.6,3.1,-25.8,5.73,2.01,-14.7,26.7
2015-11-30 00:26:00,0.0,1.92742,0.00061,404.870,0.026,0.0881,0.0019,140.002,45.000,31676.79171,1.92912,405.300,34.375,45.070,45.000,0.00,0.08,-272.75,-272.81,-5,523,-944,20.5,2.9,-26.4,20.6,3.0,-26.0,5.73,1.80,-14.7,26.8
2015-11-30 00:27:00,0.0,1.92659,0.00027,404.909,0.038,0.0851,0.0019,139.998,45.000,31675.53411,1.92820,405.325,34.375,45.069,45.000,0.00,0.08,-272.75,-272.80,-6,523,-944,20.5,2.9,-26.7,20.6,3.0,-26.1,5.73,1.94,-14.7,26.8
2015-11-30 00:28:00,0.0,1.92584,0.00053,404.921,0.053,0.0823,0.0019,139.998,45.000,31673.28870,1.92744,405.322,34.375,45.069,45.000,0.00,0.08,-272.76,-272.81,-7,523,-944,20.5,2.8,-27.1,20.6,2.9,-26.5,5.73,2.13,-14.7,26.8
2015-11-30 00:29:00,0.0,1.92600,0.00056,404.912,0.051,0.0792,0.0014,139.999,45.000,31673.56537,1.92748,405.297,34.370,45.069,45.000,0.00,0.08,-272.76,-272.81,-7,523,-944,20.5,2.7,-27.4,20.6,2.8,-26.8,5.73,2.00,-14.7,26.8
2015-11-30 00:30:00,0.0,1.92672,0.00030,404.924,0.025,0.0764,0.0023,139.997,45.000,31674.83426,1.92815,405.296,34.347,45.070,45.000,0.00,0.09,-272.74,-272.81,-6,523,-944,20.5,2.6,-27.8,20.6,2.7,-27.1,5.73,1.81,-14.7,26.8
2015-11-30 00:31:00,0.0,1.92642,0.00048,404.960,0.039,0.0724,0.0016,139.999,45.000,31675.73743,1.92782,405.314,34.329,45.070,45.000,0.00,0.09,-272.75,-272.81,-5,523,-944,20.5,2.5,-28.2,20.6,2.6,-27.6,5.73,1.94,-14.7,26.8
2015-11-30 00:32:00,0.0,1.92628,0.00039,404.933,0.026,0.0729,0.0018,140.001,45.000,31673.55446,1.92766,405.287,34.346,45.070,45.000,0.00,0.08,-272.76,-272.82,-6,523,-944,20.5,2.5,-28.3,20.6,2.6,-27.8,5.73,2.13,-14.7,26.8
2015-11-30 00:33:00,0.0,1.92613,0.00045,404.902,0.039,0.0753,0.0017,140.001,45.000,31675.01566,1.92756,405.269,34.323,45.070,45.000,0.00,0.08,-272.75,-272.81,-6,523,-944,20.5,2.5,-28.0,20.6,2.6,-27.6,5.73,1.99,-14.7,26.8
2015-11-30 00:34:00,0.0,1.92547,0.00023,404.827,0.043,0.0774,0.0019,139.998,45.000,31676.39596,1.92697,405.205,34.306,45.070,45.000,0.00,0.09,-272.75,-272.81,-7,523,-944,20.5,2.6,-27.7,20.6,2.7,-27.4,5.73,1.80,-14.7,26.7
2015-11-30 00:35:00,0.0,1.92569,0.00042,404.763,0.042,0.0809,0.0017,139.997,45.000,31674.49003,1.92719,405.159,34.273,45.070,45.000,0.00,0.08,-272.76,-272.81,-6,523,-944,20.5,2.7,-27.4,20.6,2.7,-27.1,5.73,1.95,-14.7,26.7
2015-11-30 00:36:00,0.0,1.92629,0.00045,404.637,0.052,0.0835,0.0014,139.998,45.000,31674.89842,1.92788,405.045,34.276,45.070,45.001,0.00,0.08,-272.76,-272.81,-5,523,-944,20.5,2.8,-26.9,20.6,2.9,-26.6,5.73,2.13,-14.7,26.8
2015-11-30 00:37:00,0.0,1.92681,0.00031,404.572,0.043,0.0864,0.0017,139.995,45.000,31672.64607,1.92843,404.992,34.312,45.070,45.000,0.00,0.08,-272.75,-272.80,-6,523,-944,20.4,2.9,-26.6,20.6,2.9,-26.3,5.73,1.99,-14.7,26.8
2015-11-30 00:38:00,0.0,1.92663,0.00057,404.543,0.042,0.0906,0.0020,139.998,45.000,31672.91417,1.92836,404.983,34.313,45.069,45.000,0.00,0.08,-272.75,-272.81,-6,523,-944,20.5,3.0,-26.2,20.6,3.0,-26.0,5.73,1.80,-14.7,26.8
2015-11-30 00:39:00,0.0,1.92590,0.00038,404.603,0.036,0.0941,0.0018,139.997,45.000,31673.21496,1.92769,405.061,34.313,45.069,45.000,0.00,0.08,-272.76,-272.81,-7,523,-944,20.4,3.1,-25.7,20.6,3.2,-25.5,5.73,1.96,-14.7,26.8
2015-11-30 00:40:00,0.0,1.92599,0.00027,404.577,0.038,0.0955,0.0016,139.998,45.000,31673.93533,1.92781,405.041,34.314,45.069,45.000,0.00,0.08,-272.75,-272.81,-6,523,-944,20.4,3.2,-25.4,20.6,3.2,-25.2,5.73,2.13,-14.7,26.8
2015-11-30 00:41:00,0.0,1.92580,0.00037,404.652,0.031,0.0958,0.0016,139.998,45.000,31671.76609,1.92763,405.119,34.322,45.069,45.000,0.00,0.08,-272.74,-272.81,-5,523,-944,20.5,3.2,-25.4,20.6,3.3,-25.2,5.73,1.98,-14.7,26.8
2015-11-30 00:42:00,0.0,1.92602,0.00037,404.647,0.029,0.0960,0.0014,139.998,45.000,31670.44881,1.92783,405.117,34.329,45.069,45.000,0.00,0.08,-272.75,-272.81,-6,523,-944,20.4,3.2,-25.5,20.6,3.3,-25.2,5.73,1.80,-14.7,26.8
2015-11-30 00:43:00,0.0,1.92589,0.00055,404.672,0.052,0.0893,0.0036,140.001,45.000,31673.47475,1.92757,405.105,34.333,45.069,45.000,0.00,0.09,-272.75,-272.80,-6,523,-944,20.4,3.0,-26.1,20.6,3.2,-25.4,5.73,1.95,-14.7,26.8
2015-11-30 00:44:00,0.0,1.92609,0.00039,404.738,0.035,0.0822,0.0017,139.999,45.000,31671.80687,1.92768,405.139,34.340,45.069,45.000,0.00,0.09,-272.75,-272.80,-7,523,-944,20.4,2.8,-26.9,20.6,3.0,-26.2,5.73,2.14,-14.7,26.8
2015-11-30 00:45:00,0.0,1.92601,0.00032,404.665,0.037,0.0798,0.0019,139.997,45.000,31671.41115,1.92751,405.054,34.367,45.069,45.000,0.00,0.08,-272.75,-272.81,-6,523,-944,20.4,2.7,-27.4,20.6,2.8,-26.7,5.73,1.97,-14.7,26.8
2015-11-30 00:46:00,0.0,1.92664,0.00045,404.663,0.043,0.0767,0.0019,139.996,45.000,31669.11685,1.92810,405.038,34.363,45.069,45.000,0.00,0.09,-272.75,-272.81,-5,523,-944,20.4,2.6,-27.8,20.6,2.7,-27.1,5.73,1.80,-14.7,26.8
2015-11-30 00:47:00,0.0,1.92656,0.00027,404.710,0.030,0.0739,0.0019,139.997,45.000,31668.54309,1.92795,405.070,34.375,45.069,45.000,0.00,0.09,-272.75,-272.81,-5,523,-944,20.4,2.5,-28.1,20.6,2.7,-27.4,5.73,1.96,-14.7,26.8
2015-11-30 00:48:00,0.0,1.92647,0.00042,404.734,0.039,0.0743,0.0017,140.000,45.000,31669.80707,1.92789,405.095,34.376,45.069,45.000,0.00,0.08,-272.75,-272.81,-6,523,-944,20.4,2.5,-28.2,20.6,2.6,-27.6,5.73,2.13,-14.7,26.7
2015-11-30 00:49:00,0.0,1.92639,0.00033,404.711,0.032,0.0759,0.0020,140.001,45.000,31671.87335,1.92783,405.081,34.379,45.069,45.000,0.00,0.08,-272.75,-272.81,-7,523,-944,20.4,2.6,-27.9,20.6,2.6,-27.5,5.73,1.98,-14.7,26.8
2015-11-30 00:50:00,0.0,1.92643,0.00048,404.651,0.039,0.0805,0.0018,140.000,45.000,31672.04381,1.92795,405.044,34.384,45.069,45.000,0.00,0.09,-272.74,-272.81,-6,523,-944,20.4,2.7,-27.3,20.6,2.7,-27.1,5.73,1.80,-14.7,26.7
2015-11-30 00:51:00,0.0,1.92659,0.00038,404.658,0.023,0.0832,0.0020,139.996,45.000,31670.09135,1.92817,405.061,34.385,45.069,45.000,0.00,0.08,-272.76,-272.80,-6,523,-944,20.4,2.8,-27.0,20.6,2.8,-26.7,5.73,1.97,-14.7,26.8
2015-11-30 00:52:00,0.0,1.92658,0.00043,404.698,0.056,0.0824,0.0018,139.998,45.000,31669.55274,1.92814,405.099,34.374,45.069,45.000,0.00,0.08,-272.76,-272.81,-5,523,-944,20.4,2.8,-27.0,20.6,2.9,-26.5,5.73,2.13,-14.8,26.8
2015-11-30 00:53:00,0.0,1.92659,0.00033,404.692,0.045,0.0805,0.0018,140.000,45.000,31671.34572,1.92813,405.084,34.375,45.069,45.000,0.00,0.08,-272.75,-272.81,-6,523,-944,20.4,2.7,-27.3,20.6,2.8,-26.7,5.73,1.97,-14.8,26.7
2015-11-30 00:54:00,0.0,1.92628,0.00026,404.764,0.030,0.0801,0.0013,139.998,45.000,31671.14230,1.92779,405.155,34.375,45.069,45.000,0.00,0.09,-272.75,-272.81,-7,523,-944,20.4,2.7,-27.4,20.6,2.8,-26.9,5.73,1.80,-14.7,26.7
2015-11-30 00:55:00,0.0,1.92615,0.00030,404.735,0.030,0.0795,0.0020,139.999,45.001,31672.67466,1.92766,405.122,34.367,45.069,45.000,0.00,0.08,-272.76,-272.81,-7,523,-944,20.4,2.7,-27.4,20.6,2.8,-27.0,5.73,1.96,-14.8,26.8
2015-11-30 00:56:00,0.0,1.92619,0.00032,404.705,0.033,0.0812,0.0018,139.998,45.001,31672.12607,1.92772,405.100,34.362,45.069,45.000,0.00,0.08,-272.75,-272.81,-6,523,-944,20.4,2.7,-27.3,20.6,2.8,-26.9,5.73,2.14,-14.8,26.7
2015-11-30 00:57:00,0.0,1.92620,0.00035,404.696,0.027,0.0813,0.0019,139.999,45.001,31673.22458,1.92775,405.093,34.371,45.070,45.000,0.00,0.08,-272.74,-272.81,-5,523,-944,20.4,2.8,-27.1,20.6,2.8,-26.8,5.73,1.97,-14.8,26.8
2015-11-30 00:58:00,0.0,1.92615,0.00030,404.689,0.041,0.0828,0.0016,140.000,45.000,31672.84297,1.92773,405.093,34.374,45.069,45.000,0.00,0.09,-272.75,-272.81,-6,523,-944,20.4,2.8,-27.0,20.6,2.9,-26.6,5.73,1.80,-14.8,26.7
2015-11-30 00:59:00,0.0,1.92588,0.00028,404.693,0.030,0.0850,0.0022,139.996,45.000,31672.93957,1.92751,405.107,34.352,45.069,45.000,0.00,0.08,-272.76,-272.81,-6,523,-944,20.4,2.8,-26.8,20.6,2.9,-26.4,5.73,1.97,-14.8,26.8
2015-11-30 01:00:00,0.0,1.92581,0.00028,404.662,0.033,0.0862,0.0017,140.001,45.000,31674.72718,1.92744,405.083,34.328,45.069,45.000,0.00,0.09,-272.75,-272.81,-7,523,-944,20.4,2.9,-26.6,20.6,3.0,-26.3,5.73,2.13,-14.8,26.7
2015-11-30 01:01:00,0.0,1.92601,0.00034,404.660,0.041,0.0873,0.0016,139.999,45.000,31672.66765,1.92767,405.084,34.369,45.070,45.000,0.00,0.09,-272.75,-272.81,-6,523,-944,20.4,2.9,-26.4,20.6,3.0,-26.1,5.73,1.97,-14.8,26.8
2015-11-30 01:02:00,0.0,1.92576,0.00034,404.651,0.030,0.0875,0.0017,139.998,45.000,31674.12087,1.92741,405.079,34.375,45.069,45.000,0.00,0.08,-272.75,-272.81,-5,523,-944,20.4,3.0,-26.4,20.6,3.0,-26.0,5.73,1.80,-14.8,26.8
2015-11-30 01:03:00,0.0,1.92567,0.00040,404.664,0.037,0.0888,0.0017,140.003,45.000,31675.95044,1.92737,405.095,34.381,45.069,45.000,0.00,0.08,-272.76,-272.80,-5,523,-944,20.4,3.0,-26.3,20.6,3.0,-25.9,5.73,1.97,-14.8,26.7
2015-11-30 01:04:00,0.0,1.92531,0.00028,404.723,0.044,0.0877,0.0021,139.999,45.000,31675.30276,1.92699,405.151,34.390,45.069,45.000,0.00,0.08,-272.75,-272.80,-6,523,-944,20.4,2.9,-26.4,20.5,3.0,-26.0,5.73,2.13,-14.8,26.7
2015-11-30 01:05:00,0.0,1.92559,0.00024,404.725,0.030,0.0795,0.0022,139.997,45.000,31673.63804,1.92708,405.112,34.389,45.069,45.000,0.00,0.08,-272.75,-272.81,-7,523,-944,20.4,2.7,-27.3,20.5,2.9,-26.5,5.73,1.97,-14.8,26.7
2015-11-30 01:06:00,0.0,1.92598,0.00039,404.748,0.032,0.0756,0.0018,139.997,45.000,31672.05276,1.92739,405.115,34.375,45.069,45.000,0.00,0.08,-272.75,-272.81,-6,523,-944,20.4,2.6,-28.0,20.5,2.7,-27.2,5.73,1.81,-14.8,26.8
2015-11-30 01:07:00,0.0,1.92616,0.00044,404.750,0.030,0.0718,0.0013,140.000,45.000,31672.08652,1.92756,405.101,34.354,45.069,45.000,0.00,0.09,-272.75,-272.80,-6,523,-944,20.4,2.5,-28.3,20.5,2.6,-27.6,5.73,1.96,-14.8,26.7
2015-11-30 01:08:00,0.0,1.92591,0.00030,404.746,0.021,0.0736,0.0024,139.997,45.000,31671.51708,1.92730,405.104,34.316,45.069,45.000,0.00,0.08,-272.75,-272.80,-5,523,-944,20.4,2.5,-28.2,20.5,2.6,-27.7,5.73,2.14,-14.8,26.7
2015-11-30 01:09:00,0.0,1.92553,0.00031,404.763,0.034,0.0795,0.0022,139.999,45.000,31672.16966,1.92703,405.149,34.313,45.070,45.000,0.00,0.08,-272.75,-272.82,-6,523,-944,20.4,2.7,-27.5,20.5,2.7,-27.3,5.73,1.98,-14.8,26.7
2015-11-30 01:10:00,0.0,1.92573,0.00047,404.754,0.038,0.0810,0.0013,139.996,45.000,31671.18961,1.92728,405.148,34.313,45.070,45.000,0.00,0.08,-272.75,-272.81,-7,523,-944,20.4,2.7,-27.2,20.5,2.8,-26.9,5.73,1.80,-14.8,26.7
2015-11-30 01:11:00,0.0,1.92516,0.00042,404.764,0.028,0.0804,0.0022,139.998,45.000,31673.49889,1.92670,405.155,34.309,45.070,45.000,0.00,0.09,-272.75,-272.80,-6,523,-944,20.4,2.7,-27.2,20.5,2.8,-26.8,5.73,1.95,-14.8,26.7
2015-11-30 01:12:00,0.0,1.92553,0.00041,404.753,0.032,0.0804,0.0014,140.001,45.000,31673.72688,1.92704,405.146,34.304,45.070,45.000,0.00,0.08,-272.75,-272.81,-6,523,-944,20.4,2.7,-27.2,20.5,2.8,-26.8,5.73,2.13,-14.8,26.7
2015-11-30 01:13:00,0.0,1.92580,0.00037,404.736,0.046,0.0809,0.0021,139.997,45.000,31673.43421,1.92734,405.129,34.306,45.070,45.000,0.00,0.08,-272.75,-272.81,-5,523,-944,20.4,2.7,-27.2,20.5,2.8,-26.8,5.73,2.00,-14.8,26.7
2015-11-30 01:14:00,0.0,1.92577,0.00035,404.742,0.020,0.0807,0.0018,140.000,45.000,31673.08334,1.92730,405.135,34.313,45.070,45.000,0.00,0.09,-272.75,-272.80,-6,523,-944,20.4,2.7,-27.3,20.5,2.8,-26.8,5.73,1.80,-14.8,26.7
2015-11-30 01:15:00,0.0,1.92539,0.00036,404.751,0.040,0.0794,0.0015,139.998,45.000,31672.91037,1.92690,405.138,34.313,45.070,45.000,0.00,0.09,-272.76,-272.80,-6,523,-944,20.4,2.7,-27.5,20.5,2.8,-26.9,5.73,1.94,-14.8,26.7
2015-11-30 01:16:00,0.0,1.92529,0.00029,404.771,0.060,0.0801,0.0013,139.997,45.000,31671.82676,1.92683,405.158,34.314,45.069,45.000,0.00,0.08,-272.76,-272.81,-6,523,-944,20.4,2.7,-27.4,20.5,2.8,-26.9,5.73,2.13,-14.8,26.7
2015-11-30 01:17:00,0.0,1.92523,0.00039,404.849,0.046,0.0800,0.0017,139.997,45.000,31670.34056,1.92675,405.238,34.318,45.069,45.000,0.00,0.08,-272.75,-272.81,-6,523,-944,20.4,2.7,-27.3,20.5,2.8,-26.9,5.73,2.01,-14.8,26.7
2015-11-30 01:18:00,0.0,1.92514,0.00045,404.800,0.067,0.0812,0.0016,139.997,45.000,31670.55831,1.92666,405.199,34.313,45.069,45.000,0.00,0.09,-272.74,-272.81,-5,523,-944,20.4,2.8,-27.2,20.5,2.8,-26.8,5.73,1.81,-14.8,26.7
2015-11-30 01:19:00,0.0,1.92530,0.00029,404.762,0.035,0.0831,0.0016,139.999,45.000,31669.83764,1.92688,405.164,34.305,45.069,45.000,0.00,0.08,-272.76,-272.81,-6,523,-944,20.4,2.8,-27.0,20.5,2.9,-26.6,5.73,1.92,-14.8,26.7
2015-11-30 01:20:00,0.0,1.92514,0.00033,404.792,0.045,0.0851,0.0017,139.998,45.000,31670.43551,1.92674,405.208,34.288,45.069,45.000,0.00,0.08,-272.75,-272.81,-6,523,-944,20.4,2.9,-26.7,20.5,2.9,-26.4,5.73,2.13,-14.8,26.7
2015-11-30 01:21:00,0.0,1.92528,0.00040,404.755,0.041,0.0859,0.0013,139.998,45.000,31669.60172,1.92691,405.175,34.289,45.070,45.000,0.00,0.08,-272.75,-272.80,-6,523,-944,20.4,2.9,-26.7,20.5,3.0,-26.3,5.73,2.02,-14.8,26.7
2015-11-30 01:22:00,0.0,1.92529,0.00042,404.708,0.034,0.0862,0.0012,139.998,45.000,31668.44314,1.92690,405.127,34.288,45.069,45.000,0.00,0.08,-272.75,-272.81,-6,523,-944,20.4,2.9,-26.5,20.5,3.0,-26.2,5.73,1.81,-14.8,26.7
2015-11-30 01:23:00,0.0,1.92569,0.00045,404.678,0.055,0.0896,0.0017,139.997,45.000,31667.04141,1.92742,405.115,34.304,45.069,45.000,0.00,0.08,-272.75,-272.81,-5,523,-944,20.4,3.0,-26.2,20.5,3.1,-25.9,5.73,1.92,-14.8,26.7
2015-11-30 01:24:00,0.0,1.92566,0.00037,404.731,0.056,0.0902,0.0017,139.996,45.000,31666.04204,1.92738,405.169,34.311,45.069,45.000,0.00,0.09,-272.75,-272.81,-5,523,-944,20.4,3.0,-26.1,20.5,3.1,-25.7,5.73,2.13,-14.8,26.7
2015-11-30 01:25:00,0.0,1.92522,0.00043,404.886,0.051,0.0885,0.0016,140.001,45.000,31667.20530,1.92689,405.316,34.313,45.069,45.000,0.00,0.08,-272.75,-272.81,-6,523,-944,20.4,3.0,-26.2,20.5,3.1,-25.8,5.73,2.03,-14.8,26.7
2015-11-30 01:26:00,0.0,1.92512,0.00032,404.944,0.023,0.0824,0.0029,140.002,45.000,31669.55187,1.92667,405.346,34.307,45.069,45.000,0.00,0.08,-272.75,-272.82,-7,523,-944,20.4,2.8,-27.0,20.5,3.0,-26.3,5.73,1.81,-14.8,26.7
2015-11-30 01:27:00,0.0,1.92528,0.00028,404.922,0.030,0.0785,0.0017,139.997,45.000,31668.86938,1.92680,405.306,34.296,45.069,45.000,0.00,0.09,-272.75,-272.80,-6,523,-944,20.4,2.7,-27.5,20.5,2.8,-26.8,5.73,1.91,-14.8,26.7
2015-11-30 01:28:00,0.0,1.92487,0.00032,404.936,0.022,0.0770,0.0014,139.997,45.000,31670.28406,1.92633,405.310,34.302,45.070,45.000,0.00,0.09,-272.75,-272.80,-5,523,-944,20.4,2.6,-27.7,20.5,2.8,-27.1,5.73,2.12,-14.8,26.7
2015-11-30 01:29:00,0.0,1.92570,0.00062,404.876,0.033,0.0756,0.0020,139.999,45.000,31670.43611,1.92709,405.245,34.313,45.070,45.000,0.00,0.08,-272.76,-272.81,-5,523,-944,20.4,2.6,-27.9,20.5,2.7,-27.3,5.73,2.03,-14.8,26.7
2015-11-30 01:30:00,0.0,1.92584,0.00034,404.895,0.064,0.0748,0.0019,139.999,45.000,31670.86520,1.92726,405.257,34.312,45.069,45.000,0.00,0.08,-272.76,-272.81,-6,523,-944,20.4,2.5,-28.0,20.5,2.7,-27.4,5.73,1.82,-14.8,26.7
2015-11-30 01:31:00,0.0,1.92658,0.00093,405.069,0.060,0.0732,0.0020,139.998,45.000,31670.71174,1.92798,405.427,34.303,45.069,45.000,0.00,0.09,-272.75,-272.80,-6,523,-944,20.4,2.5,-28.3,20.5,2.6,-27.6,5.73,1.90,-14.8,26.7
2015-11-30 01:32:00,0.0,1.92562,0.00035,405.034,0.032,0.0694,0.0018,139.998,45.000,31669.98877,1.92695,405.372,34.312,45.069,45.000,0.00,0.08,-272.76,-272.81,-6,523,-944,20.3,2.4,-28.8,20.5,2.5,-28.0,5.73,2.12,-14.8,26.7
2015-11-30 01:33:00,0.0,1.92571,0.00031,404.988,0.025,0.0688,0.0015,139.996,45.000,31668.93621,1.92700,405.325,34.315,45.069,45.000,0.00,0.08,-272.75,-272.81,-6,523,-944,20.4,2.3,-29.0,20.5,2.5,-28.3,5.73,2.04,-14.8,26.7
2015-11-30 01:34:00,0.0,1.92616,0.00040,404.888,0.035,0.0692,0.0014,139.999,45.001,31670.58791,1.92746,405.227,34.314,45.069,45.000,0.00,0.08,-272.74,-272.80,-5,523,-944,20.4,2.3,-28.9,20.5,2.4,-28.4,5.73,1.82,-14.8,26.7
2015-11-30 01:35:00,0.0,1.92617,0.00038,404.870,0.032,0.0703,0.0016,139.996,45.001,31669.85179,1.92751,405.211,34.316,45.069,45.000,0.00,0.09,-272.75,-272.80,-5,523,-944,20.4,2.4,-28.7,20.5,2.5,-28.3,5.73,1.90,-14.8,26.7
2015-11-30 01:36:00,0.0,1.92637,0.00029,404.833,0.030,0.0720,0.0019,139.997,45.001,31669.35542,1.92772,405.185,34.313,45.069,45.000,0.00,0.08,-272.76,-272.81,-6,523,-944,20.4,2.5,-28.4,20.5,2.5,-28.0,5.73,2.11,-14.8,26.7
2015-11-30 01:37:00,0.0,1.92656,0.00037,404.835,0.035,0.0755,0.0019,140.000,45.000,31668.86325,1.92801,405.200,34.308,45.069,45.000,0.00,0.08,-272.75,-272.81,-6,523,-944,20.4,2.6,-27.9,20.5,2.6,-27.6,5.73,2.06,-14.8,26.7
2015-11-30 01:38:00,0.0,1.92650,0.00035,404.957,0.039,0.0767,0.0013,140.001,45.000,31668.26316,1.92793,405.329,34.307,45.069,45.000,0.00,0.09,-272.75,-272.80,-6,523,-944,20.4,2.6,-27.7,20.5,2.7,-27.3,5.73,1.83,-14.8,26.7
2015-11-30 01:39:00,0.0,1.92663,0.00022,405.008,0.041,0.0780,0.0019,140.001,45.000,31669.31629,1.92810,405.388,34.314,45.069,45.000,0.00,0.09,-272.75,-272.81,-5,523,-944,20.4,2.7,-27.5,20.5,2.7,-27.2,5.73,1.87,-14.8,26.7
2015-11-30 01:40:00,0.0,1.92644,0.00033,404.960,0.083,0.0774,0.0021,140.001,45.000,31670.41992,1.92791,405.341,34.313,45.069,45.000,0.00,0.08,-272.76,-272.81,-5,523,-944,20.4,2.6,-27.6,20.5,2.7,-27.1,5.73,2.10,-14.8,26.7
2015-11-30 01:41:00,0.0,1.92694,0.00038,404.858,0.043,0.0770,0.0015,139.998,45.000,31669.35426,1.92841,405.232,34.316,45.069,45.000,0.00,0.08,-272.75,-272.81,-6,523,-944,20.4,2.6,-27.8,20.5,2.7,-27.3,5.73,2.07,-14.8,26.7
2015-11-30 01:42:00,0.0,1.92807,0.00042,404.844,0.033,0.0748,0.0020,139.997,45.000,31667.97419,1.92943,405.209,34.324,45.069,45.000,0.00,0.09,-272.75,-272.81,-6,523,-944,20.4,2.6,-28.0,20.5,2.7,-27.4,5.73,1.84,-14.8,26.7
2015-11-30 01:43:00,0.0,1.92849,0.00042,404.858,0.038,0.0733,0.0014,139.997,45.000,31670.45133,1.92986,405.213,34.343,45.069,45.000,0.00,0.08,-272.76,-272.81,-6,523,-944,20.4,2.5,-28.3,20.5,2.6,-27.7,5.73,1.86,-14.8,26.7
2015-11-30 01:44:00,0.0,1.92967,0.00034,404.900,0.027,0.0715,0.0018,139.998,44.999,31667.98142,1.93099,405.248,34.332,45.069,45.000,0.00,0.08,-272.76,-272.80,-6,523,-944,20.4,2.4,-28.6,20.5,2.6,-27.9,5.73,2.09,-14.8,26.7
2015-11-30 01:45:00,0.0,1.92958,0.00040,404.924,0.039,0.0686,0.0016,139.996,44.999,31667.16495,1.93092,405.258,34.315,45.069,45.000,0.00,0.08,-272.75,-272.81,-5,523,-944,20.4,2.3,-28.9,20.5,2.5,-28.2,5.73,2.08,-14.8,26.7